This is the latest recevied weather packets stored in our database for station/object KS4XQ. If no packets are shown the sender has not sent any weather packets the latest 10 day(s).
| Time | Temp. | Humidity | Pressure | Rain* | Wind** | Luminosity | Snow |
|---|---|---|---|---|---|---|---|
| 1777578304 | 22.78° C | 64% | 1009.3 hPa | 0 mm | - | - | - |
| 1777577402 | 22.78° C | 62% | 1009.5 hPa | 0 mm | - | - | - |
| 1777577104 | 22.78° C | 63% | 1009.6 hPa | 0 mm | - | - | - |
| 1777574702 | 23.89° C | 63% | 1009.9 hPa | 0 mm | - | - | - |
| 1777574402 | 22.78° C | 60% | 1009.9 hPa | 0 mm | - | - | - |
| 1777572602 | 23.33° C | 67% | 1010.1 hPa | 0 mm | - | - | - |
| 1777571102 | 22.78° C | 66% | 1010.4 hPa | 0 mm | - | - | - |
| 1777570203 | 22.22° C | 69% | 1010.5 hPa | 0 mm | - | - | - |
| 1777566002 | 21.11° C | 70% | 1011.1 hPa | 0 mm | - | - | - |
| 1777564502 | 20.56° C | 79% | 1011.1 hPa | 0 mm | - | - | - |
| 1777563603 | 19.44° C | 82% | 1011.3 hPa | 0 mm | - | - | - |
| 1777560002 | 16.67° C | 87% | 1011.1 hPa | 0 mm | - | - | - |
| 1777556103 | 15.56° C | 96% | 1009.8 hPa | 0.25 mm | - | - | - |
| 1777554901 | 15.56° C | 96% | 1009.5 hPa | 0.25 mm | - | - | - |
| 1777553701 | 15.56° C | 97% | 1009.5 hPa | 0.25 mm | - | - | - |
| 1777551901 | 16.11° C | 97% | 1009.1 hPa | 0.25 mm | - | - | - |
| 1777550103 | 16.11° C | 97% | 1010.1 hPa | 1.52 mm | - | - | - |
| 1777549801 | 16.11° C | 97% | 1010.1 hPa | 2.03 mm | - | - | - |
| 1777548601 | 16.11° C | 96% | 1010 hPa | 3.05 mm | - | - | - |
| 1777548003 | 16.11° C | 97% | 1009.4 hPa | 3.81 mm | - | - | - |
| 1777547701 | 16.11° C | 96% | 1009.5 hPa | 4.06 mm | - | - | - |
| 1777547401 | 16.11° C | 96% | 1009.5 hPa | 4.83 mm | - | - | - |
| 1777546806 | 16.11° C | 95% | 1009.8 hPa | 5.59 mm | - | - | - |
| 1777546501 | 16.11° C | 95% | 1009.7 hPa | 5.33 mm | - | - | - |
| 1777545901 | 16.11° C | 95% | 1010.1 hPa | 6.1 mm | - | - | - |
* Rain latest hour (hover to see other rain measurements)
** Current wind speed in m/s (hover to see current wind gust speed)